When you browse on this site, cookies collect data to enhance your experience and personalize the content and advertising you see.
Visit our Privacy Policy to learn more. By continuing to use the site, you agree to this use of cookies and data.
  • In Österreich
  • Länderverzeichnis
  • Für 7 Tage
  • Wassertemperatur
  • Wetterkarte
  • News
  • Widgets
  • user-avatar
    Anmelden

    Stündliche Wetter Huejutla de Reyes

    Heute, 14 Oktober, Montag

    Zeit Temperatur Niederschläge Wind Luftdruck Luftfeuchtigkeit
    00:00 +21°C° 0 mm 0 m/S 747 mmHg 95%
    01:00 +21°C° 0 mm 0 m/S 747 mmHg 95%
    02:00 +21°C° 0 mm 0 m/S 746 mmHg 95%
    03:00 +21°C° 0 mm 0 m/S 746 mmHg 95%
    04:00 +21°C° 0 mm 0 m/S 746 mmHg 94%
    05:00 +21°C° 0 mm 0 m/S 746 mmHg 93%
    06:00 +22°C° 0 mm 0 m/S 747 mmHg 90%
    07:00 +24°C° 0 mm 0 m/S 747 mmHg 87%
    08:00 +25°C° 0 mm 0 m/S 748 mmHg 84%
    09:00 +28°C° 0 mm 1 m/S 747 mmHg 82%
    10:00 +29°C° 0 mm 1 m/S 747 mmHg 79%
    11:00 +30°C° 0 mm 2 m/S 746 mmHg 77%
    12:00 +30°C° 0.1 mm 2 m/S 746 mmHg 78%
    13:00 +30°C° 0.1 mm 2 m/S 745 mmHg 79%
    14:00 +30°C° 0.1 mm 2 m/S 744 mmHg 79%
    15:00 +29°C° 0.2 mm 1 m/S 744 mmHg 83%
    16:00 +28°C° 0.2 mm 1 m/S 745 mmHg 87%
    17:00 +27°C° 0.2 mm 1 m/S 745 mmHg 91%
    18:00 +27°C° 0.1 mm 1 m/S 746 mmHg 92%
    19:00 +26°C° 0.1 mm 1 m/S 747 mmHg 94%
    20:00 +25°C° 0.1 mm 1 m/S 747 mmHg 95%
    21:00 +25°C° 0 mm 1 m/S 747 mmHg 95%
    22:00 +24°C° 0 mm 1 m/S 747 mmHg 95%
    23:00 +24°C° 0 mm 1 m/S 747 mmHg 96%

    Morgen, 15 Oktober, Dienstag

    Zeit Temperatur Niederschläge Wind Luftdruck Luftfeuchtigkeit
    00:00 +24°C° 0 mm 1 m/S 747 mmHg 95%
    01:00 +24°C° 0 mm 1 m/S 746 mmHg 95%
    02:00 +23°C° 0 mm 1 m/S 746 mmHg 95%
    03:00 +23°C° 0 mm 1 m/S 746 mmHg 95%
    04:00 +21°C° 0 mm 0 m/S 746 mmHg 95%
    05:00 +21°C° 0 mm 0 m/S 746 mmHg 95%
    06:00 +23°C° 0 mm 0 m/S 746 mmHg 92%
    07:00 +24°C° 0 mm 0 m/S 747 mmHg 89%
    08:00 +25°C° 0 mm 0 m/S 747 mmHg 86%
    09:00 +27°C° 0.1 mm 0 m/S 746 mmHg 82%
    10:00 +30°C° 0.1 mm 1 m/S 746 mmHg 78%
    11:00 +31°C° 0.1 mm 1 m/S 745 mmHg 73%
    12:00 +31°C° 0 mm 1 m/S 745 mmHg 73%
    13:00 +31°C° 0 mm 2 m/S 744 mmHg 73%
    14:00 +31°C° 0 mm 2 m/S 743 mmHg 73%
    15:00 +30°C° 0.1 mm 1 m/S 743 mmHg 78%
    16:00 +29°C° 0.1 mm 1 m/S 743 mmHg 83%
    17:00 +28°C° 0.1 mm 1 m/S 743 mmHg 87%
    18:00 +27°C° 0 mm 1 m/S 744 mmHg 90%
    19:00 +26°C° 0 mm 1 m/S 745 mmHg 92%
    20:00 +26°C° 0 mm 1 m/S 745 mmHg 95%
    21:00 +25°C° 0 mm 1 m/S 745 mmHg 95%
    22:00 +25°C° 0 mm 1 m/S 745 mmHg 95%
    23:00 +25°C° 0 mm 1 m/S 745 mmHg 95%

    übermorgen, 16 Oktober, Mittwoch

    Zeit Temperatur Niederschläge Wind Luftdruck Luftfeuchtigkeit
    00:00 +25°C° 0 mm 1 m/S 745 mmHg 95%
    01:00 +24°C° 0 mm 1 m/S 745 mmHg 95%
    02:00 +22°C° 0 mm 0 m/S 745 mmHg 95%
    03:00 +24°C° 0.1 mm 1 m/S 745 mmHg 95%
    04:00 +24°C° 0.1 mm 1 m/S 745 mmHg 95%
    05:00 +24°C° 0.1 mm 1 m/S 745 mmHg 95%
    06:00 +23°C° 0 mm 0 m/S 745 mmHg 92%
    07:00 +24°C° 0 mm 0 m/S 746 mmHg 89%
    08:00 +26°C° 0 mm 0 m/S 746 mmHg 86%
    09:00 +25°C° 0.4 mm 0 m/S 746 mmHg 88%
    10:00 +25°C° 0.4 mm 0 m/S 745 mmHg 89%
    11:00 +27°C° 0.4 mm 1 m/S 745 mmHg 90%
    12:00 +27°C° 0.5 mm 1 m/S 745 mmHg 90%
    13:00 +27°C° 0.5 mm 1 m/S 744 mmHg 90%
    14:00 +27°C° 0.5 mm 1 m/S 744 mmHg 90%
    15:00 +27°C° 0.2 mm 1 m/S 744 mmHg 91%
    16:00 +26°C° 0.2 mm 1 m/S 744 mmHg 92%
    17:00 +23°C° 0.2 mm 0 m/S 744 mmHg 94%
    18:00 +25°C° 0.3 mm 1 m/S 745 mmHg 93%
    19:00 +25°C° 0.3 mm 1 m/S 745 mmHg 93%
    20:00 +25°C° 0.3 mm 1 m/S 745 mmHg 93%
    21:00 +25°C° 0.4 mm 1 m/S 745 mmHg 93%
    22:00 +25°C° 0.4 mm 1 m/S 745 mmHg 94%
    23:00 +25°C° 0.4 mm 1 m/S 745 mmHg 95%

    17 Oktober, Donnerstag

    Zeit Temperatur Niederschläge Wind Luftdruck Luftfeuchtigkeit
    00:00 +24°C° 1.2 mm 1 m/S 744 mmHg 95%
    01:00 +24°C° 1.2 mm 1 m/S 744 mmHg 96%
    02:00 +24°C° 1.2 mm 1 m/S 744 mmHg 97%
    03:00 +24°C° 2.3 mm 1 m/S 744 mmHg 97%
    04:00 +24°C° 2.3 mm 2 m/S 744 mmHg 98%
    05:00 +24°C° 2.3 mm 2 m/S 744 mmHg 98%
    06:00 +24°C° 5.3 mm 2 m/S 744 mmHg 98%
    07:00 +24°C° 5.3 mm 2 m/S 745 mmHg 98%
    08:00 +24°C° 5.3 mm 3 m/S 745 mmHg 98%
    09:00 +24°C° 3 mm 3 m/S 745 mmHg 98%
    10:00 +24°C° 3 mm 3 m/S 745 mmHg 98%
    11:00 +24°C° 3 mm 3 m/S 744 mmHg 97%
    12:00 +24°C° 1.1 mm 3 m/S 744 mmHg 97%
    13:00 +24°C° 1.1 mm 2 m/S 743 mmHg 97%
    14:00 +24°C° 1.1 mm 2 m/S 743 mmHg 96%
    15:00 +24°C° 0.2 mm 2 m/S 743 mmHg 96%
    16:00 +23°C° 0.2 mm 2 m/S 743 mmHg 96%
    17:00 +23°C° 0.2 mm 1 m/S 743 mmHg 96%
    18:00 +23°C° 0 mm 1 m/S 744 mmHg 95%
    19:00 +24°C° 0 mm 1 m/S 744 mmHg 94%
    20:00 +24°C° 0 mm 1 m/S 744 mmHg 93%
    21:00 +24°C° 0 mm 1 m/S 744 mmHg 93%
    22:00 +24°C° 0 mm 1 m/S 744 mmHg 92%
    23:00 +24°C° 0 mm 1 m/S 744 mmHg 92%

    18 Oktober, Freitag

    Zeit Temperatur Niederschläge Wind Luftdruck Luftfeuchtigkeit
    00:00 +24°C° 0 mm 1 m/S 744 mmHg 91%
    01:00 +24°C° 0 mm 1 m/S 743 mmHg 91%
    02:00 +24°C° 0 mm 1 m/S 743 mmHg 90%
    03:00 +23°C° 0 mm 1 m/S 743 mmHg 90%
    04:00 +23°C° 0 mm 1 m/S 743 mmHg 90%
    05:00 +21°C° 0 mm 0 m/S 743 mmHg 90%
    06:00 +22°C° 0 mm 0 m/S 743 mmHg 87%
    07:00 +24°C° 0 mm 0 m/S 743 mmHg 84%
    08:00 +25°C° 0 mm 0 m/S 744 mmHg 81%
    09:00 +28°C° 0 mm 1 m/S 744 mmHg 78%
    10:00 +29°C° 0 mm 1 m/S 743 mmHg 76%
    11:00 +30°C° 0 mm 2 m/S 743 mmHg 73%
    12:00 +30°C° 0 mm 2 m/S 742 mmHg 74%
    13:00 +30°C° 0 mm 2 m/S 742 mmHg 76%
    14:00 +30°C° 0 mm 2 m/S 741 mmHg 77%
    15:00 +29°C° 0 mm 1 m/S 741 mmHg 81%
    16:00 +28°C° 0 mm 1 m/S 741 mmHg 84%
    17:00 +27°C° 0 mm 1 m/S 741 mmHg 88%
    18:00 +25°C° 0 mm 0 m/S 742 mmHg 89%
    19:00 +24°C° 0 mm 0 m/S 743 mmHg 91%
    20:00 +24°C° 0 mm 0 m/S 743 mmHg 92%
    21:00 +24°C° 0 mm 0 m/S 743 mmHg 93%
    22:00 +23°C° 0 mm 0 m/S 743 mmHg 93%
    23:00 +23°C° 0 mm 0 m/S 743 mmHg 94%

    19 Oktober, Samstag

    Zeit Temperatur Niederschläge Wind Luftdruck Luftfeuchtigkeit
    00:00 +23°C° 0 mm 0 m/S 743 mmHg 94%
    01:00 +23°C° 0 mm 0 m/S 742 mmHg 94%
    02:00 +23°C° 0 mm 0 m/S 742 mmHg 94%
    03:00 +23°C° 0 mm 0 m/S 742 mmHg 95%
    04:00 +22°C° 0 mm 0 m/S 742 mmHg 95%
    05:00 +22°C° 0 mm 0 m/S 742 mmHg 95%
    06:00 +24°C° 0 mm 0 m/S 742 mmHg 91%
    07:00 +25°C° 0 mm 0 m/S 742 mmHg 88%
    08:00 +26°C° 0 mm 0 m/S 743 mmHg 84%
    09:00 +27°C° 0 mm 0 m/S 742 mmHg 81%
    10:00 +30°C° 0 mm 1 m/S 742 mmHg 77%
    11:00 +31°C° 0 mm 1 m/S 742 mmHg 74%
    12:00 +31°C° 0.5 mm 2 m/S 741 mmHg 76%
    13:00 +31°C° 0.5 mm 2 m/S 740 mmHg 77%
    14:00 +31°C° 0.5 mm 2 m/S 740 mmHg 79%
    15:00 +30°C° 1.8 mm 2 m/S 740 mmHg 83%
    16:00 +29°C° 1.8 mm 1 m/S 740 mmHg 88%
    17:00 +27°C° 1.8 mm 1 m/S 741 mmHg 93%
    18:00 +27°C° 2.6 mm 1 m/S 741 mmHg 94%
    19:00 +26°C° 2.6 mm 1 m/S 742 mmHg 95%
    20:00 +24°C° 2.6 mm 0 m/S 742 mmHg 96%
    21:00 +24°C° 0.5 mm 0 m/S 742 mmHg 95%
    22:00 +23°C° 0.5 mm 0 m/S 743 mmHg 95%
    23:00 +23°C° 0.5 mm 0 m/S 743 mmHg 95%
    Mehr zeigen